Find OneWeb SL0679

NORAD ID: 56715 Int'l Des: 2023-068 Owner: ONEWEBN Country: UK Constellation: oneweb operational
LEOCIRCULARPOLARONEWEB_TYPE

Live Position

Loading 3D Globe...

About OneWeb SL0679

Description loading...

Upcoming Passes

Passes for default location (London). Set your location on the main map for personalized predictions.

Altitude History

Loading altitude history...

Two-Line Element Set

1 56715U 23068F 26105.92617131 -.00000033 00000-0 -11964-3 0 9999
2 56715 87.9066 241.1349 0001528 119.1414 240.9870 13.16594091143538
Epoch: Apr 15, 2026 • Age: 6 hours

Current Status

Altitude 1201.5 km
Velocity 7.25 km/s
Sub-Earth Point -7.47°S, 147.29°E
Launch Date May 20, 2023
Age 2.9 years
Type internet

Technical Details

Classification Payload
Mass 148.00 kg
Dry Mass 140.00 kg
Total Mass 148.00 kg
Length 1.30 m
Diameter 1.00 m
Span 5.00 m
Shape Trapezoid+2 pan
Manufacturer ONEWUS
Bus Type ARROW
Phase Status In Orbit
Owner/State ONEWEBN/UK

Most Searched